Mountain Home, ID

9:07 AM MDT on May 28, 2017 (GMT -0600)
Mountain Home Air Force Base

Weather History for KMUO - August, 2012

Change the Weather History Date:

Tuesday, August 7, 2012

  Actual Average Record
Temperature  
Mean Temperature 83 °F 77 °F  
Max Temperature 105 °F 95 °F 109 °F (1990)
Min Temperature 60 °F 58 °F 39 °F (1910)
Degree Days  
Heating Degree Days 0 0  
Month to date heating degree days 0 0  
Cooling Degree Days 18 12  
Month to date cooling degree days 97 87  
Growing Degree Days 32 (Base 50)    
Moisture  
Dew Point 38 °F    
Average Humidity 23    
Maximum Humidity 47    
Minimum Humidity 8    
Precipitation  
Precipitation 0.00 in 0.00 in 0.06 in (1974)
Month to date precipitation T 0.03  
Sea Level Pressure  
Sea Level Pressure 29.94 in    
Wind  
Wind Speed 9 mph (East)    
Max Wind Speed 22 mph    
Max Gust Speed 29 mph    
Visibility 10 miles    
Events      
T = Trace of Precipitation, MM = Missing Value Source: NWS Daily Summary

Daily Weather History Graph

Daily Weather History Graph

Search for Another Location

Airport or City:

Trip Planner

Search our weather history database for the weather conditions in past years. The results will help you decide how hot, cold, wet, or windy it might be!

Date:

Astronomy

Aug. 07, 2012 Rise Set
Actual Time 6:41 AM MDT 8:56 PM MDT
Civil Twilight 6:09 AM MDT 9:27 PM MDT
Nautical Twilight 5:30 AM MDT 10:06 PM MDT
Astronomical Twilight 4:47 AM MDT 10:49 PM MDT
Moon 11:27 PM MDT (8/7) 12:44 PM MDT (8/7)
Length of Visible Light 15h 18m
Length of Day
14h 15m
Waning Gibbous, 69% of the Moon is Illuminated
Aug 7
Waning Gibbous
Aug 9
Last Quarter
Aug 17
New
Aug 24
First Quarter
Aug 31
Full

Hourly Weather History & Observations

Time (MDT) Temp. Dew Point Humidity Pressure Visibility Wind Dir Wind Speed Gust Speed Precip Events Conditions
12:55 AM 73.9 °F 32.9 °F 22% 29.99 in 10.0 mi NW 4.6 mph - N/A   Partly Cloudy
1:55 AM 71.1 °F 36.3 °F 28% 29.98 in 10.0 mi East 5.8 mph - N/A   Clear
2:55 AM 66.2 °F 39.2 °F 37% 29.99 in 10.0 mi ESE 6.9 mph - N/A   Clear
3:55 AM 68.2 °F 39.6 °F 35% 29.99 in 10.0 mi ESE 10.4 mph - N/A   Clear
4:55 AM 63.0 °F 41.0 °F 45% 29.99 in 10.0 mi Calm Calm - N/A   Clear
5:55 AM 64.4 °F 37.0 °F 36% 30.00 in 10.0 mi ESE 10.4 mph - N/A   Clear
6:55 AM 61.3 °F 40.6 °F 47% 30.02 in 10.0 mi North 8.1 mph - N/A   Clear
7:55 AM 64.8 °F 40.6 °F 41% 30.02 in 10.0 mi East 13.8 mph - N/A   Clear
8:55 AM 70.5 °F 42.1 °F 36% 30.02 in 10.0 mi East 12.7 mph - N/A   Clear
9:55 AM 78.3 °F 39.0 °F 24% 30.02 in 10.0 mi East 16.1 mph 25.3 mph N/A   Clear
10:55 AM 85.3 °F 43.0 °F 23% 30.00 in 10.0 mi ESE 21.9 mph 28.8 mph N/A   Clear
11:55 AM 89.8 °F 38.7 °F 17% 29.99 in 10.0 mi ESE 19.6 mph - N/A   Clear
12:55 PM 93.9 °F 39.9 °F 15% 29.96 in 10.0 mi ESE 15.0 mph - N/A   Clear
1:38 PM 96.8 °F 37.4 °F 13% 30.04 in 6.0 mi East 11.5 mph - N/A   Smoke
1:55 PM 97.7 °F 35.4 °F 11% 29.94 in 10.0 mi East 8.1 mph - N/A   Partly Cloudy
2:55 PM 101.1 °F 33.1 °F 9% 29.91 in 10.0 mi ENE 6.9 mph - N/A   Clear
3:55 PM 102.4 °F 31.6 °F 8% 29.87 in 10.0 mi East 8.1 mph - N/A   Clear
4:55 PM 104.7 °F 31.6 °F 8% 29.86 in 10.0 mi Variable 5.8 mph - N/A   Clear
5:55 PM 103.6 °F 32.2 °F 8% 29.85 in 10.0 mi NE 9.2 mph - N/A   Clear
6:55 PM 103.5 °F 32.0 °F 8% 29.83 in 10.0 mi East 8.1 mph - N/A   Clear
7:55 PM 101.5 °F 36.0 °F 10% 29.83 in 10.0 mi East 9.2 mph - N/A   Partly Cloudy
8:55 PM 93.7 °F 41.7 °F 16% 29.83 in 10.0 mi East 13.8 mph - N/A   Clear
9:55 PM 84.7 °F 45.7 °F 25% 29.83 in 10.0 mi East 11.5 mph - N/A   Clear
10:55 PM 80.2 °F 43.0 °F 27% 29.84 in 10.0 mi East 10.4 mph - N/A   Clear
11:55 PM 78.8 °F 45.3 °F 31% 29.85 in 10.0 mi ESE 9.2 mph - N/A   Clear